www.pogodaiklimat.ru

Погода и климат >> Архив погоды >> Австралия >> Sydney


АРХИВ ПОГОДЫ в Sydney

Время (UTC), дата Ветер
(напр.,м/с)
 
Видим.   Явления Облачность Т
(С)
Тd
(С)
f
(%)
Тe
(С)
Тes
(С)
Комфортность P
(гПа)
Po
(гПа)
Тmin
(С)
Tmax
(С)
R
(мм)
R24
(мм)
S
(см)
22 8.12 0 н/о н/о +23.1 +15.7 63 1018.1 1013.4
23 8.12 0 н/о н/о +24.4 +15.6 58 1018.1 1013.4
01 9.12 0 н/о н/о +23.6 +16.4 64 1017.3 1012.6 +19.1
02 9.12 0 н/о н/о +24.9 +15.2 55 1016.9 1012.2
04 9.12 0 н/о н/о +25.2 +16.4 58 1015.7 1011.0
05 9.12 0 н/о н/о +24.8 +16.8 61 1014.7 1010.0
07 9.12 0 н/о н/о +23.6 +17.1 67 1014.9 1010.2
08 9.12 0 н/о н/о +22.4 +17.3 73 1015.5 1010.8
10 9.12 0 н/о н/о +21.8 +17.4 76 1016.1 1011.4
11 9.12 0 н/о н/о +21.6 +17.6 78 1016.4 1011.7
13 9.12 0 н/о н/о +21.2 +17.4 79 1016.0 1011.3 +26.1
14 9.12 0 н/о н/о +21.5 +17.9 80 1015.7 1011.0
16 9.12 0 н/о н/о +20.8 +17.4 81 1014.3 1009.6
17 9.12 0 н/о н/о +20.7 +17.1 80 1014.1 1009.4
19 9.12 0 н/о н/о +20.7 +17.1 80 1014.6 1009.9
20 9.12 0 н/о н/о +21.2 +17.0 77 1015.7 1011.0
22 9.12 0 н/о н/о +24.0 +16.8 64 1016.7 1012.0
23 9.12 0 н/о н/о +24.7 +16.9 62 1016.0 1011.3
01 10.12 0 н/о н/о +24.7 +16.9 62 1015.7 1011.0 +20.6
02 10.12 0 н/о н/о +25.4 +16.8 59 1015.6 1010.9
04 10.12 0 н/о н/о +23.8 +17.1 66 1014.2 1009.5
05 10.12 0 н/о н/о +24.4 +17.6 66 1013.6 1008.9
07 10.12 0 н/о н/о +24.1 +16.9 64 1014.1 1009.4
08 10.12 0 н/о н/о +22.5 +17.2 72 1015.4 1010.7
10 10.12 0 н/о н/о +21.4 +17.4 78 1017.1 1012.4
11 10.12 0 н/о н/о +21.2 +16.6 75 1018.2 1013.5
13 10.12 0 н/о н/о +20.8 +15.8 73 1018.4 1013.7 +26.2
14 10.12 0 н/о н/о +20.6 +15.6 73 1018.3 1013.6
16 10.12 0 н/о н/о +20.3 +15.3 73 1017.7 1013.0
17 10.12 0 н/о н/о +20.2 +14.6 70 1017.1 1012.4
19 10.12 0 н/о н/о +20.0 +13.9 68 1018.0 1013.3
20 10.12 0 н/о н/о +20.4 +14.1 67 1018.5 1013.8
22 10.12 0 н/о н/о +23.7 +14.1 55 1019.2 1014.5
23 10.12 0 н/о н/о +22.2 +13.5 58 1019.4 1014.7
01 11.12 0 н/о н/о +23.2 +13.1 53 1019.2 1014.5 +19.9
02 11.12 0 н/о н/о +22.3 +13.4 57 1019.1 1014.4
04 11.12 0 н/о н/о +22.3 +13.9 59 1018.4 1013.7
05 11.12 0 н/о н/о +21.9 +14.0 61 1018.0 1013.3
07 11.12 0 н/о н/о +21.2 +13.6 62 1017.4 1012.7
08 11.12 0 н/о н/о +21.0 +13.9 64 1017.5 1012.8
10 11.12 0 н/о н/о +20.7 +14.6 68 1018.1 1013.4
11 11.12 0 н/о н/о +20.8 +14.5 67 1017.8 1013.1
13 11.12 0 н/о н/о +20.6 +14.5 68 1017.9 1013.2 +23.9
14 11.12 0 н/о н/о +20.5 +14.4 68 1017.1 1012.4
16 11.12 0 н/о н/о +20.0 +14.1 69 1016.3 1011.6
17 11.12 0 н/о н/о +19.6 +14.4 72 1015.8 1011.1
19 11.12 0 н/о н/о +20.5 +15.5 73 1015.9 1011.2
20 11.12 0 н/о н/о +20.9 +15.4 71 1016.0 1011.3
22 11.12 0 н/о н/о +21.9 +16.0 69 1016.6 1011.9
23 11.12 0 н/о н/о +19.8 +16.6 82 1016.2 1011.5
01 12.12 0 н/о {туман} н/о +23.6 +15.4 60 1015.3 1010.6 +19.3
02 12.12 0 н/о н/о +23.0 +14.6 59 1014.2 1009.5
04 12.12 0 н/о {туман} н/о +21.6 +15.9 70 1013.1 1008.4
05 12.12 0 н/о н/о +21.6 +17.2 76 1012.3 1007.6
07 12.12 0 н/о н/о +21.4 +16.4 73 1011.1 1006.4
08 12.12 0 н/о н/о +21.9 +16.4 71 1011.2 1006.5
10 12.12 0 н/о н/о +21.5 +16.9 75 1010.5 1005.8
11 12.12 0 н/о н/о +21.2 +17.0 77 1010.7 1006.0
13 12.12 0 н/о н/о +21.4 +17.8 80 1009.5 1004.8 +24.1
14 12.12 0 н/о н/о +21.4 +18.2 82 1008.2 1003.5
16 12.12 0 н/о н/о +21.3 +18.3 83 1007.3 1002.6
17 12.12 0 н/о н/о +21.1 +17.7 81 1006.7 1002.1
19 12.12 0 н/о н/о +20.7 +18.3 86 1004.3 999.7
20 12.12 0 н/о н/о +21.1 +18.3 84 1004.7 1000.1
22 12.12 0 н/о н/о +24.7 +17.9 66 1004.2 999.6
23 12.12 0 н/о н/о +25.5 +18.2 64 1003.7 999.1
01 13.12 0 н/о в посл. час дождь {туман} н/о +25.5 +17.4 61 1002.5 997.9 +20.7
02 13.12 0 н/о н/о +26.0 +17.4 59 1001.9 997.3
04 13.12 0 н/о {туман} н/о +25.8 +18.0 62 999.9 995.3
05 13.12 0 н/о н/о +24.4 +17.9 67 999.2 994.6
07 13.12 0 н/о н/о +24.5 +18.4 69 998.0 993.4
08 13.12 0 н/о н/о +23.7 +18.6 73 997.7 993.1
10 13.12 0 н/о в посл. час дождь {туман} н/о +20.0 +17.8 87 1000.8 996.2
11 13.12 0 н/о н/о +20.3 +18.1 87 1000.6 996.0
13 13.12 0 н/о {туман} н/о +19.9 +17.7 87 1000.9 996.3 +26.8
14 13.12 0 н/о н/о +20.2 +18.0 87 1000.2 995.6
16 13.12 0 н/о {туман} н/о +20.8 +18.6 87 1000.2 995.6
17 13.12 0 н/о н/о +20.6 +18.4 87 999.6 995.0
19 13.12 0 н/о н/о +20.7 +18.5 87 1001.2 996.6
20 13.12 0 н/о н/о +21.0 +18.8 87 1001.3 996.7
22 13.12 0 н/о н/о +22.4 +18.8 80 1002.8 998.2
23 13.12 0 н/о н/о +23.4 +19.1 77 1002.4 997.8
01 14.12 0 н/о н/о +23.4 +19.8 80 1003.0 998.4 +19.8
02 14.12 0 н/о н/о +25.9 +21.1 75 1003.2 998.6
04 14.12 0 н/о {туман} н/о +24.0 +18.9 73 1002.3 997.7
05 14.12 0 н/о н/о +22.2 +19.6 85 1003.3 998.7
07 14.12 0 н/о в посл. час дождь {туман} н/о +21.9 +19.8 88 1003.1 998.5
08 14.12 0 н/о н/о +21.7 +19.4 87 1003.9 999.3
10 14.12 0 н/о {туман} н/о +22.0 +19.9 88 1004.7 1000.1
11 14.12 0 н/о н/о +22.0 +19.7 87 1005.7 1001.1
13 14.12 0 н/о н/о +21.9 +19.8 88 1005.0 1000.4 +26.7
14 14.12 0 н/о н/о +21.8 +19.9 89 1004.5 999.9
16 14.12 0 н/о в посл. час дождь {туман} н/о +22.0 +20.3 90 1004.1 999.5
17 14.12 0 н/о н/о +21.9 +20.0 89 1004.3 999.7
19 14.12 0 н/о н/о +21.9 +20.0 89 1005.2 1000.6
20 14.12 0 н/о н/о +22.2 +20.1 88 1005.8 1001.2
22 14.12 0 н/о н/о +25.2 +20.7 76 1007.5 1002.8
23 14.12 0 н/о н/о +25.9 +20.5 72 1007.6 1002.9
01 15.12 0 н/о н/о +26.6 +20.4 69 1006.7 1002.1 +21.7
02 15.12 0 н/о н/о +25.9 +20.2 71 1005.9 1001.3
04 15.12 0 н/о н/о +25.9 +20.9 74 1004.7 1000.1
05 15.12 0 н/о н/о +26.0 +20.8 73 1003.5 998.9
07 15.12 0 н/о туман местами н/о +22.4 +18.6 79 1003.3 998.7
08 15.12 0 н/о н/о +23.2 +20.5 85 1005.2 1000.6
10 15.12 0 н/о в посл. час дождь {туман} н/о +23.0 +18.5 76 1006.1 1001.5
11 15.12 0 н/о н/о +22.5 +20.2 87 1006.2 1001.6
13 15.12 0 н/о н/о +22.7 +20.2 86 1006.6 1002.0 +27.8
14 15.12 0 н/о н/о +22.7 +20.2 86 1006.2 1001.6
16 15.12 0 н/о н/о +22.1 +19.6 86 1005.4 1000.8
17 15.12 0 н/о н/о +21.7 +19.6 88 1005.9 1001.3
19 15.12 0 н/о н/о +21.6 +19.7 89 1006.6 1002.0
20 15.12 0 н/о н/о +21.8 +19.7 88 1007.2 1002.5

 

Местоположение метеостанции Sydney (Новый Южный Уэльс, Австралия): широта -33.93 долгота 151.18 высота над уровнем моря 5 м.

В архиве по умолчанию представлена погода в Sydney за последнюю неделю. Архивные данные за месяц целиком и за предыдущие месяцы, начиная с января 2011 года, Вы можете получить, выбрав интересующий диапазон дат из раскрывающегося списка и нажав кнопку "Ввод!".


*Определитесь, кто Вы:
робот инопланетянин человек

Внимание! Время в таблицах - всемирное. Для получения местного времени необходимо прибавить поправку, которая в Sydney равна 10 ч.

Смотрите также архив погоды в соседних городах и на ближайших метеорологических станциях:

Погода в Sydney Airport (Новый Южный Уэльс, Австралия) (2 км)
Погода в Canterbury Racecourse Aws (Новый Южный Уэльс, Австралия) (6 км)
Погода в Kurnell Aws (Новый Южный Уэльс, Австралия) (8 км)
Погода в Little Bay (the Coast Golf Club) (Новый Южный Уэльс, Австралия) (9 км)
Погода в Sydney Olympic Park (Новый Южный Уэльс, Австралия) (15 км)
Погода в Bankstown Airport Aws (Новый Южный Уэльс, Австралия) (18 км)
Погода в Wattamolla Aws (Новый Южный Уэльс, Австралия) (23 км)
Погода в Holsworthy Control Range (Новый Южный Уэльс, Австралия) (25 км)
Погода в Terrey Hills Reserv (Новый Южный Уэльс, Австралия) (28 км)
Погода в Horsley Park Equestrian Center (Новый Южный Уэльс, Австралия) (32 км)

Пояснения к столбцам:

Ветер - указаны скорость ветра в м/с - средняя за 10 мин, порывы в срок и между сроками (в фигурных скобках) и направление, откуда дует ветер: С - северный, СВ - северо-восточный, В - восточный, ЮВ - юго-восточный, Ю - южный, ЮЗ - юго-западный, З - западный, СЗ - северо-западный.
Видимость - горизонтальная дальность видимости в метрах или километрах. При видимости от 1 до 10 км при отсутствии осадков обычно наблюдается дымка, при ухудшении видимости до 1 км и менее - туман. В сухую погоду видимость может ухудшаться дымом, пылью или мглою.
Явления - указаны атмосферные явления, наблюдавшиеся в срок или в последний час перед сроком; фигурными скобками обозначены явления, наблюдавшиеся между сроками (за 1-3 часа до срока); квадратными скобками обозначены град или гололедные отложения с указанием их диаметра в мм.
Облачность - указаны через наклонную черту общая и нижняя облачность в баллах и высота нижней границы облаков в метрах; квадратными скобками обозначены формы облаков: Ci - перистые, Cs - перисто-слоистые, Cc - перисто-кучевые, Ac - высококучевые, As - высокослоистые, Sc - слоисто-кучевые, Ns - слоисто-дождевые, Cu - кучевые, Cb - кучево-дождевые. Подробнее классификацию облаков см. в Атласе облаков (PDF).
T - Температура воздуха - температура, измеренная на высоте 2 м над землей.
Td - Температура точки росы - температура, при понижении до которой содержащийся в воздухе водяной пар достигнет насыщения.
f - Относительная влажность воздуха - влажноcть воздуха, измеренная на высоте 2 м над землей.
Te - Эффективная температура - температура, которую ощущает одетый по сезону человек в тени. Характеристика душности погоды. При расчете учитывается влияние влажности воздуха и скорости ветра на теплоощущения человека.
Tes - Эффективная температура на солнце - температура, которую ощущает человек, с поправкой на солнечный нагрев. Характеристика знойности погоды. Зависит от высоты солнца над горизонтом, облачности и скорости ветра. Ночью, в пасмурную погоду, а также при ветре 12 м/с и более поправка равна нулю.
P - Атмосферное давление - приведенное к уровню моря атмосферное давление.
Po - Атмосферное давление - измеренное на уровне метеостанции атмосферное давление.
Tmin - Минимальная температура - минимум температуры воздуха на высоте 2 м над землей.
Tmax - Максимальная температура - максимум температуры воздуха на высоте 2 м над землей.
R - Количество осадков - Количество выпавших осадков за период времени, мм. При наведении курсора мыши на число - период времени, за который выпало указанное количество осадков.
R24 - Количество осадков - Количество выпавших осадков за 24 часа, мм.
S - Снежный покров - Высота снежного покрова, см. При наведении курсора мыши на число - состояние снежного покрова и степень покрытия местности в баллах.